Погода в Мамыкове

Россия / Самарская область     54°22′38″N   50°44′02″E
темп.,
°C
ветер,
м/с
пор.,
м/с
влажн.,
%
обл.,
%
осадки,
мм/ч
давл.,
гПа
погр.,
м
24 января, пн
пн2401:00−12вюв2292100 0.0 103520
04:00−13вюв1193100 0.0 103611
07:00−15вюв2295100 0.0 103615
10:00−12юв1389100 0.0 103771
13:00−9вюв1285100 0.0 1037130
16:00−11в1194100 0.0 103610
19:00−15юв2296100 0.0 103622
22:00−18вюв119841 0.0 10369
25 января, вт
вт2501:00−20юв22995 0.0 10359
04:00−21юв11975 0.0 10349
07:00−22вюв22985 0.0 103411
10:00−20юв21975 0.0 103227
13:00−13ю369112 0.0 1031161
16:00−15ююв249415 0.0 102945
19:00−19юв239897 0.0 102827
22:00−18юв259984 0.0 102764
26 января, ср
ср2601:00−16юв3896100 0.0 1025126
04:00−15юв379783 0.0 1023111
07:00−13юв3996100 0.0 1022176
10:00−11ююв499593 0.1 1021248
13:00−9ююв4894100 0.1 1019301
16:00−8ююв3696100 0.3 1019257
19:00−10ю259799 0.1 101889
22:00−10ююз3796100 0.4 1018159
27 января, чт
чт2701:00−11ююз379794 0.1 1019141
04:00−15ююз359993 0.1 102073
07:00−15ююз3697100 0.0 1021107
10:00−14ю3896100 0.0 1022175
13:00−12ююз489465 0.0 1021246
16:00−13ю369641 0.0 1022102
19:00−16ю229991 0.0 102231
22:00−18ю2210097 0.1 102216
28 января, пт
пт2801:00−18ю22100100 0.0 102313
04:00−19ююв1110099 0.1 10239
07:00−16в1197100 0.0 102218
10:00−12всв229593 0.0 102151
13:00−8св239284 0.0 1020115
16:00−8всв3593100 0.0 1019145
19:00−9св3694100 0.0 1018103
22:00−7в3796100 0.4 1016244